Location: Vassar Physics Lab
(41.6843°N, 73.8954°W)
Time: 07:48:52
(UTC-04:00)

CZ-4B DEB - Visible Passes

Search period start: 25 March 2017 00:00
Search period end: 04 April 2017 00:00
Orbit: 842 x 862 km, 99.0° (Epoch: 23 March)

Date Brightness Start Highest point End Pass type
(mag) Time Alt. Az. Time Alt. Az. Time Alt. Az.
25 Mar 6.1 03:58:24 10° NE 04:03:02 26° E 04:07:05 12° SSE visible
25 Mar 4.6 05:38:37 10° N 05:43:51 43° WNW 05:49:03 10° SW visible
26 Mar 6.4 03:47:21 10° NE 03:51:28 21° E 03:55:33 10° SE visible
26 Mar 4.4 05:27:03 10° N 05:32:28 54° WNW 05:37:41 11° SW visible
27 Mar 6.7 03:36:28 10° NE 03:39:53 16° E 03:43:16 10° SE visible
27 Mar 4.2 05:15:32 10° N 05:21:03 68° WNW 05:26:15 12° SSW visible
28 Mar 6.9 03:25:56 10° ENE 03:28:17 13° E 03:30:37 10° ESE visible
28 Mar 4.2 05:04:02 10° NNE 05:09:39 84° WNW 05:14:48 12° SSW visible
29 Mar 4.3 04:52:35 10° NNE 04:58:11 78° ESE 05:03:22 12° S visible
30 Mar 4.6 04:41:11 10° NNE 04:46:43 62° ESE 04:51:55 11° S visible
31 Mar 5.0 04:29:50 10° NNE 04:35:14 49° E 04:40:28 10° S visible
31 Mar 5.4 06:11:13 10° N 06:15:35 24° WNW 06:19:56 10° WSW visible
01 Apr 5.4 04:18:32 10° NNE 04:23:43 39° E 04:28:51 10° SSE visible
01 Apr 5.1 05:59:30 10° N 06:04:15 30° WNW 06:08:57 10° WSW visible
02 Apr 5.8 04:07:17 10° NE 04:12:12 31° E 04:17:02 10° SSE visible
02 Apr 4.9 05:47:50 10° N 05:52:54 37° WNW 05:57:54 10° SW visible
03 Apr 6.2 03:56:09 10° NE 04:00:39 25° E 04:05:06 10° SSE visible
03 Apr 4.6 05:36:14 10° N 05:41:31 45° WNW 05:46:45 10° SW visible
